Retour au catalogue

HULIANWANG DIGUI-131

ActifCommunicationsLEO
NORAD 67239·PAYLOAD·🇨🇳 China

Lancé Dec 25, 2025 depuis Wenchang Space Launch Site

Loading…

Prochains Passages (prochaines 24 heures)

TLE

FraisSource: Space-Track

Époque: Sep 14, 2026, 02:46 UTC

1 67239U 25311D   26257.11590550 -.00000078  00000-0  10023-3 0  9992
2 67239  50.0043 157.1404 0000303 301.6457  58.4385 13.29326593 35166

Suivez HULIANWANG DIGUI-131 en temps réel avec AllMySat

Download on the App Store